Simultaneous Nadir Overpasses (SNOs) Predictions

Prediction of SNOs between GOES-14 and AQUA Satellite Orbit:

Table of predicted SNOs for the next 14.0 days since TLE Epoch: 5/10/2019
Index Date Time (GOES-14) GOES-14 Lat,Lon AQUA Lat,Lon Distance(km) Time Diff (sec)
1 05/11/2019 20:30:17 -0.10,-104.44 0.00,-103.97 53.46 80
2 05/13/2019 20:18:05 -0.10,-104.44 0.64,-101.01 390.35 80
3 05/14/2019 08:39:20 0.09,-104.38 0.46,-106.17 202.57 80
4 05/16/2019 08:29:48 0.09,-104.39 -0.18,-103.21 134.79 80
5 05/16/2019 20:51:13 -0.07,-104.47 -0.88,-108.41 447.87 80
6 05/18/2019 08:17:35 0.09,-104.40 -0.77,-100.24 472.29 80
7 05/18/2019 20:39:00 -0.07,-104.48 -0.29,-105.45 110.71 80
8 05/20/2019 20:24:08 -0.07,-104.48 0.36,-102.49 226.48 80
9 05/21/2019 08:45:23 0.05,-104.40 0.73,-107.65 368.56 80
10 05/23/2019 08:33:10 0.06,-104.41 0.13,-104.68 30.96 80




NCC Satellite Simultaneous Nadir Overpasses (SNOs) Prediction Service
